Regional Weather Roundup
Issued by NWS

Home | Current Version | Previous Version | Graphics & Text | Print | Product List | Glossary On
Versions: 1 2 3 4 5 6 7 8 9 10 11 12 13 14 15 16 17 18 19 20 21 22 23 24 25 26 27 28 29 30 31 32 33 34 35 36 37 38 39 40 41 42 43 44 45 46 47 48 49 50
000
ASUS43 KDTX 211010
RWRMI
MICHIGAN HOURLY REGIONAL WEATHER ROUNDUP
NATIONAL WEATHER SERVICE DETROIT/PONTIAC MI
600 AM EDT SUN SEP 21 2014

NOTE: "FAIR" INDICATES FEW OR NO CLOUDS BELOW 12,000 FEET WITH NO
SIGNIFICANT WEATHER AND/OR OBSTRUCTION TO VISIBILITY.

MIZ047>049-052>055-059>063-066>070-074>076-081>083-211100-
SOUTHEAST LOWER MICHIGAN

CITY           SKY/WX    TMP DP  RH WIND       PRES   REMARKS
ADRIAN         CLOUDY    68  65  90 W10G23    29.64F
ALMA           CLOUDY    62  59  93 W8        29.60S
BAD AXE        HVY RAIN  61  60  98 SW7       29.58F
GROSSE ILE     CLOUDY    68  64  88 SW12      29.61F
HILLSDALE      MOCLDY    67  66  97 W10G20    29.66R
HOWELL         CLOUDY    62  60  95 W8        29.62F

CITY           SKY/WX    TMP DP  RH WIND       PRES   REMARKS
JACKSON        MOCLDY    65  62  90 W13G25    29.64R
LAMBERTVILLE   MOCLDY    68  64  88 SW8G18    29.62F
LAPEER         NOT AVBL
MASON          MOCLDY    61  58  92 W6        29.63R
MONROE         CLOUDY    68  64  88 SW16G23   29.60F
MT. CLEMENS    LGT RAIN  64  64 100 SW7       29.57F FOG
PONTIAC        TSTM      63  60  90 W10G23    29.61R FOG
PORT HOPE        N/A     64  62  93 CALM      29.55F
PORT HURON     LGT RAIN  64  64 100 S5        29.60F
TRI CITIES     CLOUDY    62  59  90 SW3       29.59F
$$
MIZ043>046-050>051-056>058-064>065-071>073-077>080-211100-
SOUTHWEST LOWER MICHIGAN

CITY           SKY/WX    TMP DP  RH WIND       PRES   REMARKS
BATTLE CREEK   MOCLDY    63  59  87 W16G26    29.68R
BENTON HARBOR  PTCLDY    61  56  83 W15G26    29.73R
BIG RAPIDS     CLEAR     56  56 100 W7        29.60S
COLDWATER      CLOUDY    67  62  85 W17G26    29.68R
HOLLAND        MOCLDY    62  58  86 W18G26    29.68R
GRAND RAPIDS   PTCLDY    61  60  97 W16       29.65R
KALAMAZOO      PTCLDY    63  59  87 W14       29.69R
MARSHALL       PTCLDY    63  60  91 W16G24    29.65R
MUSKEGON       CLOUDY    60  55  83 W15G25    29.66R
$$
MIZ016>042-211100-
NORTHERN LOWER MICHIGAN

CITY           SKY/WX    TMP DP  RH WIND       PRES   REMARKS
ALPENA         TSTM      56  55  97 N5        29.58S
BEAVER ISLAND  RAIN      56  55  97 CALM      29.63R
BELLAIRE       HVY RAIN  56  54  94 CALM      29.60R
CADILLAC       MOCLDY    54  54 100 W5        29.58R
CHARLEVOIX     HVY RAIN  57  57 100 N5        29.64R
FRANKFORT      PTSUNNY   57  54  87 CALM      29.59S
GAYLORD        LGT RAIN  54  53  97 VRB3      29.59F
GRAYLING       LGT RAIN  56  56  99 N10       29.57F
HARBOR SPRINGS HVY RAIN  56  55  95 N8        29.59F
HOUGHTON LAKE  CLOUDY    60  58  92 W7        29.57F
MANISTEE       CLOUDY    57  55  94 CALM      29.60R
OSCODA         HVY RAIN  62  62 100 W6        29.56S
PELLSTON       RAIN      55  55 100 NE3       29.61S FOG
TRAVERSE CITY  CLOUDY    58  55  90 N7        29.58R
$$
MIZ007>008-015-211100-
EASTERN UPPER MICHIGAN

CITY           SKY/WX    TMP DP  RH WIND       PRES   REMARKS
KINROSS        CLOUDY    54  54 100 N8        29.62S
MACKINAC ISLAN CLOUDY    54  54  99 N7        29.60F
NEWBERRY       CLOUDY    51  50  97 N9        29.63S
S. S. MARIE    CLOUDY    53  48  83 NE8G17    29.63R
$$
MIZ004>006-011>014-085-211100-
CENTRAL UPPER MICHIGAN

CITY           SKY/WX    TMP DP  RH WIND       PRES   REMARKS
MANISTIQUE     CLOUDY    52  52  99 N10       29.63S
ESCANABA       CLOUDY    54  50  87 N8        29.64R
MENOMINEE      MOCLDY    54  52  94 N7        29.64R
SAWYER-GWINN   LGT RAIN  49  47  93 N16       29.71S
$$
MIZ001>003-009>011-084-211100-
WESTERN UPPER MICHIGAN

CITY           SKY/WX    TMP DP  RH WIND       PRES   REMARKS
IRON MOUNTAIN  LGT RAIN  54  51  90 N10       29.69R
HOUGHTON       CLOUDY    48  44  86 N12G21    29.79R
COPPER HARBOR    N/A     48  45  89 NE12      29.79R
IRONWOOD       CLOUDY    48  46  93 N7        29.80R
$$

ABBREVIATIONS USED IN REMARKS
   TC - TEMPERATURE IN CELSIUS
  WCI - WIND CHILL INDEX
   HX - HEAT INDEX
  VSB - VISIBILITY



USA.gov is the U.S. government's official web portal to all federal, state and local government web resources and services.